Simultaneous Nadir Overpasses (SNOs) Predictions

Prediction of SNOs over PacNW region [( 10.00, 139.50) to ( 22.70, 165.60)] between AQUA and NPP Satellites:

Table of predicted SNOs over PacNW region for the next 30.0 days since TLE Epoch: 2/2/2013
Index Date (AQUA) Time (AQUA) AQUA Lat,Lon Date (NPP) Time (NPP) NPP Lat,Lon Distance(km) Time Diff (sec)
1 02/06/2013 15:10:34 20.40, 159.31 02/06/2013 15:09:56 20.94, 156.70 277.88 38
2 02/14/2013 15:59:12 22.62, 147.53 02/14/2013 16:00:09 23.29, 144.57 311.71 57
3 02/22/2013 15:09:25 22.61, 159.99 02/22/2013 15:09:32 23.21, 157.22 290.85 7




NCC Satellite Simultaneous Nadir Overpasses (SNOs) Prediction Service
